Waco, TX

6:22 PM CDT on July 24, 2017 (GMT -0500)
Waco Regional

Weather History for KACT - April, 2014

Change the Weather History Date:

Saturday, April 26, 2014

  Actual Average Record
Temperature  
Mean Temperature 72 °F 69 °F  
Max Temperature 82 °F 80 °F 97 °F (1902)
Min Temperature 61 °F 58 °F 38 °F (1910)
Degree Days  
Heating Degree Days 0 1  
Month to date heating degree days 91 74  
Since 1 July heating degree days 2584 2132  
Cooling Degree Days 7 5  
Month to date cooling degree days 92 88  
Year to date cooling degree days 107 131  
Growing Degree Days 22 (Base 50)    
Moisture  
Dew Point 63 °F    
Average Humidity 69    
Maximum Humidity 93    
Minimum Humidity 45    
Precipitation  
Precipitation 0.00 in 0.10 in 4.31 in (1922)
Month to date precipitation 1.70 2.25  
Year to date precipitation 3.33 10.15  
Snow  
Snow 0.00 in 0.00 in 0.00 in ()
Month to date snowfall 0.0 0.1  
Since 1 July snowfall 0.1 1.0  
Snow Depth 0.00 in    
Sea Level Pressure  
Sea Level Pressure 29.77 in    
Wind  
Wind Speed 15 mph (SSE)    
Max Wind Speed 25 mph    
Max Gust Speed 33 mph    
Visibility 9 miles    
Events      
T = Trace of Precipitation, MM = Missing Value Source: NWS Daily Summary

Daily Weather History Graph

Daily Weather History Graph

Search for Another Location

Airport or City:

Trip Planner

Search our weather history database for the weather conditions in past years. The results will help you decide how hot, cold, wet, or windy it might be!

Date:

Astronomy

Apr. 26, 2014 Rise Set
Actual Time 6:48 AM CDT 8:05 PM CDT
Civil Twilight 6:22 AM CDT 8:30 PM CDT
Nautical Twilight 5:52 AM CDT 9:01 PM CDT
Astronomical Twilight 5:20 AM CDT 9:33 PM CDT
Moon 5:02 AM CDT (4/26) 5:44 PM CDT (4/26)
Length of Visible Light 14h 08m
Length of Day
13h 16m
Waning Crescent, 8% of the Moon is Illuminated
Apr 26
Waning Crescent
Apr 29
New
May 6
First Quarter
May 14
Full
May 21
Last Quarter

Hourly Weather History & Observations

Time (CDT) Temp. Heat Index Dew Point Humidity Pressure Visibility Wind Dir Wind Speed Gust Speed Precip Events Conditions
12:51 AM 68.0 °F - 46.4 °F 46% 29.89 in 10.0 mi SSE 9.2 mph - N/A   Clear
1:51 AM 66.9 °F - 51.1 °F 57% 29.84 in 10.0 mi SSE 10.4 mph - N/A   Clear
2:51 AM 66.0 °F - 57.0 °F 73% 29.82 in 10.0 mi South 9.2 mph - N/A   Clear
3:51 AM 66.0 °F - 61.0 °F 84% 29.81 in 10.0 mi South 11.5 mph - N/A   Clear
4:51 AM 64.9 °F - 62.1 °F 90% 29.80 in 10.0 mi South 8.1 mph - N/A   Clear
5:35 AM 62.6 °F - 60.8 °F 94% 29.82 in 10.0 mi SSE 8.1 mph - N/A   Scattered Clouds
5:51 AM 64.0 °F - 62.1 °F 93% 29.81 in 10.0 mi South 10.4 mph - N/A   Partly Cloudy
6:07 AM 64.4 °F - 62.6 °F 94% 29.83 in 10.0 mi South 13.8 mph - N/A   Mostly Cloudy
6:16 AM 66.2 °F - 62.6 °F 88% 29.83 in 10.0 mi South 15.0 mph - N/A   Mostly Cloudy
6:51 AM 66.0 °F - 63.0 °F 90% 29.81 in 10.0 mi South 15.0 mph - N/A   Overcast
7:51 AM 66.9 °F - 63.0 °F 87% 29.82 in 10.0 mi South 16.1 mph - N/A   Overcast
8:51 AM 69.1 °F - 63.0 °F 81% 29.83 in 10.0 mi South 17.3 mph - N/A   Overcast
9:51 AM 70.0 °F - 64.0 °F 81% 29.83 in 9.0 mi South 16.1 mph - N/A   Overcast
10:51 AM 71.6 °F - 64.4 °F 78% 29.84 in 6.0 mi South 13.8 mph - N/A   Haze
11:51 AM 73.9 °F - 66.0 °F 76% 29.81 in 6.0 mi South 13.8 mph - N/A   Haze
12:51 PM 75.0 °F - 66.0 °F 73% 29.80 in 4.0 mi South 18.4 mph - N/A   Haze
1:51 PM 75.9 °F - 66.0 °F 71% 29.77 in 4.0 mi South 13.8 mph - N/A   Haze
2:51 PM 78.1 °F - 66.9 °F 68% 29.75 in 8.0 mi South 16.1 mph - N/A   Overcast
3:51 PM 80.6 °F 82.7 °F 66.2 °F 61% 29.73 in 10.0 mi SSE 23.0 mph 28.8 mph N/A   Mostly Cloudy
4:51 PM 79.0 °F - 66.0 °F 64% 29.69 in 10.0 mi SSE 15.0 mph 24.2 mph N/A   Mostly Cloudy
5:51 PM 80.1 °F 82.3 °F 66.9 °F 64% 29.68 in 10.0 mi SSE 15.0 mph - N/A   Scattered Clouds
6:51 PM 79.0 °F - 68.0 °F 69% 29.66 in 10.0 mi SSE 16.1 mph 25.3 mph N/A   Clear
7:51 PM 77.0 °F - 69.1 °F 76% 29.64 in 10.0 mi SE 12.7 mph - N/A   Clear
8:51 PM 77.0 °F - 69.1 °F 76% 29.64 in 9.0 mi SE 16.1 mph 21.9 mph N/A   Clear
9:51 PM 75.9 °F - 69.1 °F 79% 29.65 in 8.0 mi SE 15.0 mph - N/A   Mostly Cloudy
10:51 PM 75.0 °F - 66.0 °F 73% 29.64 in 6.0 mi SSE 17.3 mph 28.8 mph N/A   Haze
11:51 PM 73.4 °F - 64.4 °F 73% 29.65 in 8.0 mi SSE 17.3 mph 25.3 mph N/A   Clear